EW8203 Weather Reports


Display with metric or nautical units.
time (UTC)temp
F
wind
direction
speed
MPH
gust
MPH
rain 1hr
in
rain 24hr
in
rain mn
in
humidity
%
barometer
mb
20260906133020 76 100 1.0 7.0 0.00 0.00 0.00 85 1014.8
20260906131521 75 53 3.0 9.0 0.00 0.00 0.00 85 1014.7
20260906130022 75 78 2.0 7.0 0.00 0.00 0.00 85 1014.7
20260906124516 75 60 1.0 5.0 0.00 0.00 0.00 87 1014.4
20260906123024 74 48 2.0 6.0 0.00 0.00 0.00 88 1014.2
20260906121527 74 53 1.0 4.0 0.00 0.00 0.00 89 1014.1
20260906120013 74 46 0.0 2.0 0.00 0.00 0.00 89 1014.2
20260906114512 74 42 0.0 1.0 0.00 0.00 0.00 89 1013.9
20260906113032 74 57 0.0 2.0 0.00 0.00 0.00 88 1013.7
20260906111511 74 40 1.0 3.0 0.00 0.00 0.00 88 1013.5
20260906110009 74 84 1.0 3.0 0.00 0.00 0.00 88 1013.5
20260906104509 75 56 1.0 3.0 0.00 0.00 0.00 87 1013.5
20260906103005 75 40 1.0 3.0 0.00 0.00 0.00 87 1013.3
20260906101503 75 51 0.0 3.0 0.00 0.00 0.00 86 1013.2
20260906100002 76 44 1.0 3.0 0.00 0.00 0.00 86 1013.3
20260906094559 76 57 2.0 6.0 0.00 0.00 0.00 86 1013.0
20260906093057 76 65 2.0 7.0 0.00 0.00 0.00 85 1012.7
20260906091554 77 69 3.0 9.0 0.00 0.00 0.00 86 1012.8
20260906090103 77 56 2.0 8.0 0.00 0.00 0.00 86 1012.5
20260906084552 77 51 3.0 9.0 0.00 0.00 0.00 86 1012.4
20260906083051 78 57 4.0 9.0 0.00 0.00 0.00 87 1012.3
20260906081553 78 48 4.0 8.0 0.00 0.00 0.00 87 1012.5
20260906080046 79 60 4.0 9.0 0.00 0.00 0.00 86 1012.2
20260906074603 79 76 3.0 8.0 0.00 0.00 0.00 85 1012.2
20260906073043 79 54 4.0 9.0 0.00 0.00 0.00 85 1012.3
20260906071540 80 59 3.0 10.0 0.00 0.00 0.00 84 1012.3
20260906070039 80 96 5.0 11.0 0.00 0.00 0.00 83 1012.4
20260906064536 81 121 4.0 9.0 0.00 0.00 0.00 81 1012.5
20260906063034 81 98 3.0 9.0 0.00 0.00 0.00 80 1012.6
20260906061531 82 46 4.0 9.0 0.00 0.00 0.00 78 1012.6
20260906060029 83 94 4.0 11.0 0.00 0.00 0.00 77 1012.6
20260906054530 83 74 3.0 9.0 0.00 0.00 0.00 76 1012.6
20260906053031 83 78 3.0 8.0 0.00 0.00 0.00 75 1012.6
20260906051523 84 69 3.0 7.0 0.00 0.00 0.00 74 1012.6
20260906050032 84 61 3.0 8.0 0.00 0.00 0.00 72 1012.6
20260906044532 84 60 2.0 4.0 0.00 0.00 0.00 71 1012.4
20260906043019 85 62 2.0 4.0 0.00 0.00 0.00 70 1012.3
20260906041518 85 49 2.0 5.0 0.00 0.00 0.00 68 1012.3
20260906040025 85 49 1.0 5.0 0.00 0.00 0.00 67 1012.3
20260906034518 85 66 0.0 3.0 0.00 0.00 0.00 66 1012.2
20260906033034 86 52 0.0 4.0 0.00 0.00 0.00 64 1012.2
20260906031516 86 65 1.0 3.0 0.00 0.00 0.00 63 1011.9
20260906030016 87 53 1.0 3.0 0.00 0.00 0.00 62 1011.8
20260906024515 87 39 1.0 3.0 0.00 0.00 0.00 61 1011.7
20260906023015 88 62 1.0 4.0 0.00 0.00 0.00 60 1011.4
20260906021515 88 54 2.0 4.0 0.00 0.00 0.00 59 1011.2
20260906020015 88 46 0.0 2.0 0.00 0.00 0.00 59 1011.0
20260906014514 89 57 1.0 5.0 0.00 0.00 0.00 58 1010.8
20260906013014 89 28 0.0 2.0 0.00 0.00 0.00 58 1010.7
20260906011513 90 76 0.0 3.0 0.00 0.00 0.00 58 1010.6
20260906010013 90 64 1.0 3.0 0.00 0.00 0.00 57 1010.5
20260906004512 91 57 1.0 3.0 0.00 0.00 0.00 55 1010.4
20260906003012 93 33 1.0 4.0 0.00 0.00 0.00 54 1010.3
20260906001510 94 63 1.0 4.0 0.00 0.00 0.00 50 1010.4
20260906000011 95 38 0.0 2.0 0.00 0.00 0.00 48 1010.3
20260905234509 96 28 0.0 2.0 0.00 0.00 0.00 47 1010.4
20260905233009 97 40 0.0 3.0 0.00 0.00 0.00 45 1010.3
20260905231508 98 355 0.0 3.0 0.00 0.00 0.00 44 1010.3
20260905230008 98 14 0.0 2.0 0.00 0.00 0.00 44 1010.6
20260905224508 99 80 0.0 3.0 0.00 0.00 0.00 45 1010.4
20260905223008 100 132 1.0 9.0 0.00 0.00 0.00 43 1010.4
20260905221506 100 148 0.0 2.0 0.00 0.00 0.00 42 1010.3
20260905220006 100 120 0.0 9.0 0.00 0.00 0.00 40 1010.4
20260905214505 99 240 0.0 3.0 0.00 0.00 0.00 41 1010.3
20260905213004 99 305 0.0 3.0 0.00 0.00 0.00 39 1010.4
20260905211506 100 67 0.0 2.0 0.00 0.00 0.00 38 1010.5
20260905210002 102 94 0.0 6.0 0.00 0.00 0.00 36 1010.5
20260905204506 104 118 0.0 2.0 0.00 0.00 0.00 36 1010.6
20260905203002 103 53 0.0 0.0 0.00 0.00 0.00 37 1010.6
20260905201601 103 110 0.0 3.0 0.00 0.00 0.00 37 1010.8
20260905194600 102 42 0.0 5.0 0.00 0.00 0.00 38 1011.1
20260905193055 103 120 0.0 5.0 0.00 0.00 0.00 37 1011.5
20260905191553 103 146 0.0 2.0 0.00 0.00 0.00 37 1011.7
20260905190053 103 103 0.0 3.0 0.00 0.00 0.00 38 1011.7
20260905184548 102 111 0.0 2.0 0.00 0.00 0.00 39 1011.8
20260905183045 102 90 0.0 5.0 0.00 0.00 0.00 40 1012.1
20260905181602 102 5 0.0 1.0 0.00 0.00 0.00 41 1012.3
20260905180040 101 139 0.0 3.0 0.00 0.00 0.00 44 1012.2
20260905174547 100 355 0.0 8.0 0.00 0.00 0.00 46 1012.4
20260905173034 100 206 0.0 1.0 0.00 0.00 0.00 46 1012.5
20260905171537 99 120 0.0 3.0 0.00 0.00 0.00 47 1012.5
20260905170023 99 344 0.0 2.0 0.00 0.00 0.00 47 1012.8
20260905164519 97 316 0.0 3.0 0.00 0.00 0.00 49 1012.9
20260905163016 96 296 0.0 4.0 0.00 0.00 0.00 50 1013.1
20260905161510 95 283 1.0 5.0 0.00 0.00 0.00 53 1013.1
20260905160010 94 345 0.0 3.0 0.00 0.00 0.00 55 1013.2
20260905154503 93 300 0.0 3.0 0.00 0.00 0.00 56 1013.3
20260905153102 93 341 0.0 3.0 0.00 0.00 0.00 57 1013.4
20260905151603 92 246 0.0 3.0 0.00 0.00 0.00 58 1013.4
20260905150054 91 290 0.0 4.0 0.00 0.00 0.00 60 1013.3
20260905144551 89 63 0.0 3.0 0.00 0.00 0.00 61 1013.2
20260905143049 88 323 1.0 8.0 0.00 0.00 0.00 62 1013.3
20260905141545 87 297 2.0 5.0 0.00 0.00 0.00 63 1013.1
20260905140041 86 246 2.0 7.0 0.00 0.00 0.00 66 1013.0
20260905134539 85 282 1.0 7.0 0.00 0.00 0.00 68 1013.0